Dewpoint
-9 -9 -8 -7 -5 -3 -1 -0 2 2 3 4 4 5 7 14 20 20 22 23 24 26 26 26 27 28 29 30 30 30 31 32 32 32 32 33 33 32 33 32 31 29 30 26 17 17 19 20 25 26 28 27 27 27 28 25 22 23 24 23 23 24 31
-7 -7 -6 -4 -3 -2 -0 2 3 4 5 6 7 8 15 18 19 17 18 22 24 25 26 26 27 28 29 30 30 30 30 30 30 31 31 32 32 32 32 33 32 31 30 30 22 15 15 18 21 23 27 27 27 27 29 26 24 24 24 24 23 23 25
-5 -4 -2 0 2 3 5 6 8 8 10 11 15 15 14 14 16 17 17 19 23 24 25 26 27 28 29 30 29 30 30 31 30 30 30 31 32 32 31 32 32 31 30 30 28 19 15 16 18 21 23 26 27 27 28 28 27 25 25 25 25 24 24
-3 -3 -3 -2 -1 3 1 2 7 9 10 11 11 12 13 15 16 17 17 19 21 24 25 25 26 27 29 29 29 29 29 30 31 31 31 32 32 32 32 32 32 32 31 30 30 23 17 16 17 18 21 24 25 26 27 28 28 28 26 25 25 23 22
-2 -2 -1 -1 -1 -0 -0 1 2 4 5 6 7 10 13 14 15 16 18 19 20 22 25 26 26 27 29 29 29 28 29 29 30 31 31 31 31 31 31 31 31 31 31 31 30 28 19 17 16 16 19 23 24 25 26 27 27 26 26 26 26 25 24
-1 -1 -1 -1 -0 0 1 1 2 3 4 5 5 6 11 13 15 16 17 18 20 22 25 26 28 28 28 28 28 29 29 30 30 31 31 30 30 30 30 30 30 31 31 31 30 30 20 18 17 17 18 20 22 23 24 25 26 27 26 25 24 24 23
0 0 0 1 1 2 2 2 3 3 4 5 6 9 10 11 13 14 16 18 19 20 23 26 28 29 29 29 29 29 30 30 30 30 30 30 30 30 30 29 29 30 30 30 30 30 24 19 18 18 18 19 19 20 22 23 24 24 25 25 24 23 22
2 2 3 2 3 3 4 4 4 4 5 7 8 9 10 10 11 13 14 16 18 20 23 25 27 29 29 29 30 30 30 30 29 29 29 30 30 30 30 29 29 29 29 29 30 29 24 20 18 18 19 20 19 19 20 21 22 22 23 24 24 24 22
5 5 5 4 4 5 5 6 6 7 7 8 9 10 9 10 11 12 13 15 17 19 22 24 25 27 28 28 29 30 30 30 30 29 28 29 30 30 30 29 28 29 29 29 29 30 28 21 18 17 18 19 19 19 19 20 22 22 23 23 23 24 25
7 7 7 7 7 7 7 7 7 10 15 16 12 11 11 11 11 12 14 16 17 19 21 24 25 25 26 27 28 29 29 30 30 30 30 29 30 29 29 29 28 28 28 29 29 29 29 25 21 17 18 19 19 20 21 21 20 20 21 21 22 22 24
8 8 8 8 9 9 9 9 9 15 18 19 20 17 16 15 15 15 15 17 17 18 20 22 24 24 25 27 27 28 28 29 30 30 31 30 30 30 30 29 28 29 29 29 29 29 29 27 24 19 18 19 19 19 20 20 20 20 21 20 19 19 21
8 9 9 9 10 10 10 10 15 18 19 20 21 21 18 17 17 17 17 18 18 19 21 22 23 23 24 24 25 26 27 28 29 30 30 31 31 31 31 31 29 29 29 29 28 28 28 28 27 25 22 21 21 19 19 20 20 22 21 20 20 21 20
9 9 10 10 11 11 11 11 16 19 21 21 22 22 21 19 19 18 18 19 19 20 21 22 22 23 23 24 26 26 25 25 26 29 30 30 31 31 31 31 31 31 29 29 29 28 28 28 27 26 24 24 22 20 21 21 21 22 22 21 21 21 20
9 10 10 11 11 12 12 13 16 20 22 23 23 23 22 21 20 20 20 19 20 20 21 21 22 22 23 24 24 25 25 25 25 26 28 30 30 30 30 31 31 31 30 30 28 28 28 29 28 26 25 25 25 23 22 22 22 23 23 22 22 23 22
10 11 11 12 12 13 13 13 19 22 23 24 25 24 23 22 21 21 20 21 21 21 21 21 22 23 23 24 24 24 25 25 25 26 27 28 29 30 31 30 30 31 31 30 29 28 29 29 29 28 26 25 25 24 24 24 23 24 24 24 23 22 23
11 11 12 13 13 14 15 16 21 23 25 26 26 27 24 23 22 21 21 21 22 22 22 22 22 23 23 24 24 25 26 26 26 27 27 26 27 29 30 30 31 31 31 31 30 29 29 29 28 29 27 26 25 26 26 26 25 25 23 21 20 19 21
11 12 12 13 14 15 15 17 20 23 25 25 26 27 27 25 23 22 22 22 22 22 23 23 23 23 23 24 24 25 26 26 27 27 27 27 27 28 28 28 30 31 32 32 32 32 31 31 30 30 29 28 28 27 26 24 23 22 22 21 19 19 20
11 12 13 13 14 14 15 16 19 22 24 26 26 27 27 26 24 23 23 23 23 23 23 23 24 24 24 24 24 26 26 27 27 27 27 27 27 27 27 28 28 28 30 32 31 31 31 31 31 30 30 29 29 29 27 24 22 22 22 21 20 18 18
11 11 12 13 13 17 16 16 18 21 24 25 26 26 27 27 26 24 24 24 24 24 24 24 24 25 25 25 26 27 28 28 28 28 28 28 27 26 27 27 28 27 27 29 30 30 31 30 31 31 30 30 29 28 27 26 25 23 22 20 20 18 17
11 11 12 14 15 15 16 17 18 20 23 25 25 25 26 26 24 24 25 26 25 25 25 26 26 26 27 28 28 29 29 29 29 29 29 28 27 26 26 28 28 27 27 28 29 29 30 30 30 30 30 29 29 28 26 26 25 23 22 21 20 18 17
11 12 13 14 16 16 17 18 19 20 24 25 25 24 24 24 24 23 23 22 22 23 25 26 27 28 29 29 29 30 30 30 30 30 30 29 27 27 28 28 27 27 28 28 28 28 29 29 29 29 29 28 28 27 26 25 25 24 24 22 20 18 18
12 12 13 15 16 17 17 19 20 21 23 25 24 24 24 23 24 24 22 22 22 22 22 22 23 25 28 29 30 30 31 31 30 30 30 29 29 29 29 28 27 26 26 26 26 27 28 28 28 28 28 27 27 26 25 25 24 24 24 24 23 20 18
12 13 14 15 16 18 19 20 21 23 24 25 24 22 22 23 24 26 25 22 22 22 23 23 23 24 25 25 26 29 30 30 30 30 30 31 31 30 29 29 26 25 25 25 25 26 26 26 26 26 26 26 26 25 25 24 24 24 21 18 18 18 20
13 14 15 16 17 18 20 22 23 24 24 23 24 24 23 23 23 23 24 23 23 23 24 23 23 23 24 25 26 27 28 29 29 30 30 30 31 30 30 28 26 25 25 25 24 24 25 25 26 25 25 24 25 24 21 16 15 14 14 13 10 12 11
14 15 16 17 18 19 21 22 23 22 21 24 25 25 25 26 25 25 24 24 24 24 24 24 24 25 26 26 27 26 26 27 28 29 30 30 31 31 29 28 26 25 24 24 23 24 24 25 25 25 25 24 18 13 13 12 9 9 9 9 8 7 5
15 16 17 18 19 20 21 22 22 21 21 22 23 24 25 27 27 26 26 26 25 26 26 26 26 27 27 27 27 26 27 26 27 27 28 29 30 30 29 29 26 25 24 24 23 24 24 24 24 24 22 17 15 17 13 11 9 9 9 11 10 7 4
17 17 18 18 19 20 21 22 22 21 22 23 23 22 22 21 20 23 23 21 22 23 23 25 25 26 26 25 25 24 24 24 24 25 26 27 28 29 29 29 27 25 25 24 24 23 23 24 20 16 16 16 17 17 14 12 11 11 10 10 9 6 4
17 18 18 19 20 20 21 22 22 23 24 24 22 21 21 20 19 19 19 20 20 20 21 21 21 21 19 19 19 19 18 18 18 18 19 21 23 27 27 28 29 27 25 24 24 23 21 15 15 17 18 17 17 15 13 13 12 11 9 9 8 6 3
18 19 19 20 20 21 21 22 23 24 25 25 24 22 21 20 21 21 21 22 22 19 18 18 17 17 17 17 16 16 15 15 16 15 16 16 17 19 24 26 25 24 23 24 22 17 15 15 17 17 16 15 15 13 12 13 11 11 10 9 11 9 3
18 20 20 20 21 23 24 23 23 24 24 24 23 23 23 23 22 21 22 22 21 19 16 15 15 15 14 14 14 14 13 12 13 13 12 12 15 14 14 14 18 20 19 18 19 17 15 16 16 15 15 14 12 11 11 11 12 10 10 10 9 6 5
21 22 21 21 21 22 24 25 25 25 24 24 23 23 23 22 22 21 22 21 16 14 13 13 13 13 13 13 13 12 12 12 12 11 11 10 10 11 11 11 11 12 14 15 15 15 15 14 14 14 13 12 10 10 10 10 10 10 11 11 9 7 5
19 20 21 21 21 22 21 23 24 24 24 23 23 23 23 23 22 22 21 20 18 12 11 12 11 11 11 11 11 11 11 11 11 10 10 9 8 8 9 10 10 12 12 12 13 12 11 12 12 11 9 9 8 8 9 8 9 9 9 9 8 7 5
18 19 20 20 21 22 22 22 22 23 23 23 22 21 21 21 21 21 19 17 10 9 8 9 9 9 9 9 10 10 9 9 8 8 7 8 7 7 8 9 10 11 11 11 11 10 10 9 8 7 7 6 7 8 8 8 8 9 8 7 4 2 2
15 17 18 18 19 20 21 21 21 22 22 22 21 20 19 18 15 18 18 14 8 7 6 7 7 7 8 8 9 8 8 6 6 6 6 6 7 8 9 9 10 10 10 10 9 8 8 8 7 7 7 6 7 7 7 7 7 7 6 6 4 1 -0
6 11 15 13 15 18 19 20 20 20 20 20 20 19 17 15 7 6 5 5 4 5 5 5 5 6 7 8 7 7 6 4 4 4 4 5 7 7 8 8 8 8 8 7 7 7 7 6 6 7 6 6 6 5 6 5 5 5 6 3 0 -1 -3
5 6 10 13 14 16 17 18 18 18 19 19 18 17 15 6 6 6 5 4 4 4 4 3 3 5 6 7 6 5 3 2 1 0 1 2 5 6 7 7 7 6 6 6 5 5 6 6 6 6 6 6 6 6 5 4 3 3 2 1 -1 -2 -4